Fort Eustis, VA

8:54 PM EST on November 13, 2019 (GMT -0500)
Felker Army Air Field

Weather History for KFAF - September, 2019

Change the Weather History Date:

Sunday, September 8, 2019

  Actual Average Record
Temperature  
Mean Temperature 76 °F -  
Max Temperature 85 °F 80 °F 95 °F (2016)
Min Temperature 68 °F 66 °F 57 °F (2017)
Cooling Degree Days 12    
Growing Degree Days 26 (Base 50)    
Moisture  
Dew Point 66 °F    
Average Humidity 70    
Maximum Humidity 82    
Minimum Humidity 54    
Precipitation  
Precipitation 0.00 in - - ()
Sea Level Pressure  
Sea Level Pressure 30.03 in    
Wind  
Wind Speed 3 mph ()    
Max Wind Speed 9 mph    
Max Gust Speed -    
Visibility 10.0 miles    
Events      
Averages and records for this station are not official NWS values.
T = Trace of Precipitation, MM = Missing Value Source: Averaged Metar Reports

Daily Weather History Graph

Daily Weather History Graph

Search for Another Location

Airport or City:

Astronomy

Sep. 08, 2019 Rise Set
Actual Time 6:42 AM EDT 7:25 PM EDT
Civil Twilight 6:16 AM EDT 7:51 PM EDT
Nautical Twilight 5:45 AM EDT 8:22 PM EDT
Astronomical Twilight 5:13 AM EDT 8:54 PM EDT
Moon 4:25 PM EDT (9/8) 1:27 AM EDT (9/8)
Length of Visible Light 13h 34m
Length of Day
12h 42m
Waxing Gibbous, 75% of the Moon is Illuminated
Sep 8
Waxing Gibbous
Sep 14
Full
Sep 21
Last Quarter
Sep 28
New
Oct 5
First Quarter

Hourly Weather History & Observations

Time (EDT) Temp. Heat Index Dew Point Humidity Pressure Visibility Wind Dir Wind Speed Gust Speed Precip Events Conditions
12:56 AM 72.0 °F - 62.1 °F 71% 29.98 in 10.0 mi NE 4.6 mph - N/A   Partly Cloudy
1:56 AM 69.6 °F - 62.1 °F 77% 29.98 in 10.0 mi Calm Calm - N/A   Clear
2:56 AM 68.9 °F - 62.1 °F 79% 29.98 in 10.0 mi Calm Calm - N/A   Clear
3:56 AM 68.2 °F - 61.7 °F 80% 29.98 in 10.0 mi Calm Calm - N/A   Clear
4:56 AM 68.0 °F - 62.2 °F 82% 29.98 in 10.0 mi Calm Calm - N/A   Mostly Cloudy
5:56 AM 69.4 °F - 63.3 °F 81% 29.99 in 10.0 mi Calm Calm - N/A   Overcast
6:56 AM 69.6 °F - 63.5 °F 81% 30.00 in 10.0 mi SE 4.6 mph - N/A   Scattered Clouds
7:56 AM 72.0 °F - 65.1 °F 79% 30.02 in 10.0 mi ENE 3.5 mph - N/A   Mostly Cloudy
8:56 AM 76.3 °F - 65.7 °F 70% 30.04 in 10.0 mi Calm Calm - N/A   Clear
9:26 AM 77.0 °F - 66.2 °F 69% 30.05 in 10.0 mi South 3.5 mph - N/A   Mostly Cloudy
9:46 AM 77.0 °F - 66.2 °F 69% 30.05 in 10.0 mi South 3.5 mph - N/A   Overcast
9:56 AM 76.6 °F - 66.6 °F 71% 30.06 in 10.0 mi Calm Calm - N/A   Overcast
10:26 AM 77.0 °F - 66.2 °F 69% 30.06 in 10.0 mi NNW 4.6 mph - N/A   Mostly Cloudy
10:46 AM 78.8 °F - 66.2 °F 65% 30.06 in 10.0 mi WNW 4.6 mph - N/A   Mostly Cloudy
10:56 AM 78.6 °F - 67.1 °F 68% 30.06 in 10.0 mi NNW 3.5 mph - N/A   Mostly Cloudy
11:56 AM 80.8 °F 83.3 °F 67.5 °F 64% 30.05 in 10.0 mi North 3.5 mph - N/A   Partly Cloudy
12:56 PM 82.9 °F 85.4 °F 66.6 °F 58% 30.03 in 10.0 mi West 3.5 mph - N/A   Partly Cloudy
1:56 PM 84.2 °F 86.8 °F 66.7 °F 56% 30.02 in 10.0 mi North 5.8 mph - N/A   Scattered Clouds
2:56 PM 83.3 °F 85.9 °F 66.9 °F 58% 30.01 in 10.0 mi NE 8.1 mph - N/A   Partly Cloudy
3:56 PM 85.1 °F 87.7 °F 66.6 °F 54% 30.00 in 10.0 mi NE 4.6 mph - N/A   Partly Cloudy
4:56 PM 82.6 °F 84.9 °F 66.2 °F 58% 30.00 in 10.0 mi ENE 8.1 mph - N/A   Partly Cloudy
5:56 PM 81.3 °F 83.2 °F 65.5 °F 58% 30.01 in 10.0 mi East 9.2 mph - N/A   Partly Cloudy
6:56 PM 79.5 °F - 68.4 °F 69% 30.03 in 10.0 mi ENE 6.9 mph - N/A   Clear
7:56 PM 77.5 °F - 68.5 °F 74% 30.05 in 10.0 mi East 5.8 mph - N/A   Partly Cloudy
8:56 PM 76.6 °F - 68.5 °F 76% 30.06 in 10.0 mi ENE 9.2 mph - N/A   Mostly Cloudy
9:56 PM 76.3 °F - 68.2 °F 76% 30.07 in 10.0 mi East 8.1 mph - N/A   Mostly Cloudy
10:06 PM 77.0 °F - 68.0 °F 74% 30.07 in 10.0 mi ENE 5.8 mph - N/A   Partly Cloudy
10:56 PM 75.6 °F - 67.5 °F 76% 30.07 in 10.0 mi East 5.8 mph - N/A   Clear
11:56 PM 74.8 °F - 67.8 °F 79% 30.07 in 10.0 mi East 3.5 mph - N/A   Clear